TimeEST,TemperatureF,Dew PointF,Humidity,Sea Level PressureIn,VisibilityMPH,Wind Direction,Wind SpeedMPH,Gust SpeedMPH,PrecipitationIn,Events,Conditions,WindDirDegrees,DateUTC
12:19 AM,28.9,25.0,85,30.10,10.0,Calm,Calm,-,N/A,,Partly Cloudy,0,2013-01-21 05:19:00
12:53 AM,28.9,25.0,85,30.09,10.0,Calm,Calm,-,N/A,,Scattered Clouds,0,2013-01-21 05:53:00
1:06 AM,28.9,26.1,89,30.09,10.0,Calm,Calm,-,N/A,,Mostly Cloudy,0,2013-01-21 06:06:00
1:53 AM,28.0,26.1,92,30.08,10.0,Calm,Calm,-,N/A,,Mostly Cloudy,0,2013-01-21 06:53:00
2:34 AM,28.9,26.1,89,30.10,4.0,Calm,Calm,-,N/A,,Scattered Clouds,0,2013-01-21 07:34:00
2:53 AM,27.0,25.0,92,30.09,3.0,Calm,Calm,-,N/A,,Scattered Clouds,0,2013-01-21 07:53:00
3:53 AM,27.0,25.0,92,30.08,1.0,Calm,Calm,-,N/A,,Mist,0,2013-01-21 08:53:00
4:00 AM,27.0,25.0,92,30.09,0.2,Calm,Calm,-,N/A,Fog,Light Freezing Fog,0,2013-01-21 09:00:00
4:53 AM,25.0,24.1,96,30.07,0.2,Calm,Calm,-,N/A,Fog,Light Freezing Fog,0,2013-01-21 09:53:00
5:10 AM,25.0,24.1,96,30.08,0.5,Calm,Calm,-,N/A,Fog,Light Freezing Fog,0,2013-01-21 10:10:00
5:35 AM,25.0,23.0,92,30.07,1.2,Calm,Calm,-,N/A,,Scattered Clouds,0,2013-01-21 10:35:00
5:53 AM,25.0,23.0,92,30.07,1.5,Calm,Calm,-,N/A,,Scattered Clouds,0,2013-01-21 10:53:00
6:01 AM,25.0,23.0,92,30.07,2.0,Calm,Calm,-,N/A,,Partly Cloudy,0,2013-01-21 11:01:00
6:41 AM,25.0,23.0,92,30.06,0.2,Calm,Calm,-,N/A,Fog,Light Freezing Fog,0,2013-01-21 11:41:00
6:53 AM,25.0,24.1,96,30.06,0.2,Calm,Calm,-,N/A,Fog,Light Freezing Fog,0,2013-01-21 11:53:00
6:59 AM,24.1,21.9,91,30.07,0.5,Calm,Calm,-,N/A,,Unknown,0,2013-01-21 11:59:00
7:06 AM,24.1,21.9,91,30.07,10.0,Calm,Calm,-,N/A,,Partly Cloudy,0,2013-01-21 12:06:00
7:18 AM,23.0,21.0,92,30.08,1.0,WSW,3.5,-,N/A,,Partly Cloudy,240,2013-01-21 12:18:00
7:46 AM,21.9,21.9,100,30.08,0.2,WSW,3.5,-,N/A,Fog,Light Freezing Fog,250,2013-01-21 12:46:00
7:53 AM,23.0,21.0,92,30.09,2.0,Calm,Calm,-,N/A,,Scattered Clouds,0,2013-01-21 12:53:00
8:31 AM,25.0,24.1,96,30.09,1.0,Calm,Calm,-,N/A,,Scattered Clouds,0,2013-01-21 13:31:00
8:37 AM,26.1,25.0,96,30.10,0.1,Calm,Calm,-,N/A,,Scattered Clouds,0,2013-01-21 13:37:00
8:53 AM,26.1,25.0,96,30.10,0.1,Calm,Calm,-,N/A,Fog,Light Freezing Fog,0,2013-01-21 13:53:00
9:51 AM,30.2,30.2,100,30.11,1.0,Calm,Calm,-,N/A,,Scattered Clouds,0,2013-01-21 14:51:00
9:53 AM,32.0,30.0,92,30.12,1.0,Calm,Calm,-,N/A,,Scattered Clouds,0,2013-01-21 14:53:00
10:06 AM,32.0,32.0,100,30.12,5.0,Calm,Calm,-,N/A,,Mostly Cloudy,0,2013-01-21 15:06:00
10:53 AM,34.0,32.0,92,30.13,10.0,Calm,Calm,-,N/A,,Overcast,0,2013-01-21 15:53:00
11:53 AM,41.0,21.9,47,30.09,10.0,WSW,13.8,-,N/A,,Mostly Cloudy,250,2013-01-21 16:53:00
12:53 PM,43.0,19.9,40,30.04,10.0,West,18.4,25.3,N/A,,Scattered Clouds,260,2013-01-21 17:53:00
1:53 PM,43.0,18.0,37,30.02,10.0,West,19.6,28.8,N/A,,Scattered Clouds,270,2013-01-21 18:53:00
2:53 PM,43.0,17.1,35,30.03,10.0,West,25.3,36.8,N/A,,Partly Cloudy,270,2013-01-21 19:53:00
3:53 PM,42.1,15.1,34,30.03,10.0,West,19.6,32.2,N/A,,Partly Cloudy,260,2013-01-21 20:53:00
4:53 PM,41.0,15.1,35,30.03,10.0,WSW,13.8,-,N/A,,Clear,240,2013-01-21 21:53:00
5:53 PM,37.9,14.0,38,30.03,10.0,WSW,15.0,-,N/A,,Clear,240,2013-01-21 22:53:00
6:53 PM,37.0,15.1,41,30.05,10.0,West,16.1,24.2,N/A,,Clear,260,2013-01-21 23:53:00
7:53 PM,35.1,12.9,40,30.06,10.0,West,12.7,-,N/A,,Clear,270,2013-01-22 00:53:00
8:53 PM,33.1,12.0,42,30.07,10.0,West,13.8,-,N/A,,Clear,280,2013-01-22 01:53:00
9:53 PM,30.9,10.9,43,30.09,10.0,West,12.7,20.7,N/A,,Clear,270,2013-01-22 02:53:00
10:53 PM,28.9,10.0,45,30.11,10.0,West,18.4,25.3,N/A,,Partly Cloudy,280,2013-01-22 03:53:00
11:53 PM,27.0,8.1,45,30.12,10.0,West,15.0,27.6,N/A,,Scattered Clouds,270,2013-01-22 04:53:00